Time,TemperatureF,DewpointF,PressureIn,WindDirection,WindDirectionDegrees,WindSpeedMPH,WindSpeedGustMPH,Humidity,HourlyPrecipIn,Conditions,Clouds,dailyrainin,SoftwareType,DateUTC
2013-09-28 00:43:00,60.0,-99.9,30.27,NE,37,-999.0,-999.0,-999,0.00,,,-99.99,,2013-09-28 04:43:00,
2013-09-28 00:53:00,57.0,-99.9,30.26,NE,37,-999.0,-999.0,-999,0.00,,,-99.99,,2013-09-28 04:53:00,
2013-09-28 01:43:00,57.0,-99.9,30.26,NE,37,-999.0,-999.0,-999,0.00,,,-99.99,,2013-09-28 05:43:00,
2013-09-28 02:42:00,57.0,-99.9,30.27,NE,37,-999.0,-999.0,-999,0.00,,,-99.99,,2013-09-28 06:42:00,
2013-09-28 02:52:00,57.0,-99.9,30.27,NE,37,-999.0,-999.0,-999,0.00,,,-99.99,,2013-09-28 06:52:00,
2013-09-28 03:42:00,57.0,-99.9,30.27,NE,37,-999.0,-999.0,-999,0.00,,,-99.99,,2013-09-28 07:42:00,
2013-09-28 03:52:00,57.0,-99.9,30.27,NE,37,-999.0,-999.0,-999,0.00,,,-99.99,,2013-09-28 07:52:00,
2013-09-28 03:53:00,53.0,-99.9,30.26,NE,37,-999.0,-999.0,-999,0.00,,,-99.99,,2013-09-28 07:53:00,
2013-09-28 04:43:00,53.0,-99.9,30.26,NE,37,-999.0,-999.0,-999,0.00,,,-99.99,,2013-09-28 08:43:00,
2013-09-28 04:53:00,53.0,-99.9,30.27,NE,37,-999.0,-999.0,-999,0.00,,,-99.99,,2013-09-28 08:53:00,
2013-09-28 05:43:00,53.0,-99.9,30.27,NE,37,-999.0,-999.0,-999,0.00,,,-99.99,,2013-09-28 09:43:00,
2013-09-28 06:43:00,53.0,-99.9,30.29,NE,37,-999.0,-999.0,-999,0.00,,,-99.99,,2013-09-28 10:43:00,
2013-09-28 06:52:00,53.0,-99.9,30.29,NE,37,-999.0,-999.0,-999,0.00,,,-99.99,,2013-09-28 10:52:00,
2013-09-28 07:43:00,51.0,-99.9,30.30,NE,37,-999.0,-999.0,-999,0.00,,,-99.99,,2013-09-28 11:43:00,
2013-09-28 07:52:00,51.0,-99.9,30.30,NE,37,-999.0,-999.0,-999,0.00,,,-99.99,,2013-09-28 11:52:00,
2013-09-28 08:42:00,51.0,-99.9,30.31,NE,37,-999.0,-999.0,-999,0.00,,,-99.99,,2013-09-28 12:42:00,
2013-09-28 08:52:00,51.0,-99.9,30.31,NE,37,-999.0,-999.0,-999,0.00,,,-99.99,,2013-09-28 12:52:00,
2013-09-28 09:42:00,57.0,-99.9,30.32,NNE,27,-999.0,6.0,-999,0.00,,,-99.99,,2013-09-28 13:42:00,
2013-09-28 09:52:00,57.0,-99.9,30.32,NNE,27,-999.0,6.0,-999,0.00,,,-99.99,,2013-09-28 13:52:00,
2013-09-28 10:42:00,63.0,-99.9,30.33,North,352,3.0,8.0,-999,0.00,,,-99.99,,2013-09-28 14:42:00,
2013-09-28 10:52:00,63.0,-99.9,30.33,North,352,3.0,8.0,-999,0.00,,,-99.99,,2013-09-28 14:52:00,
2013-09-28 10:53:00,69.0,-99.9,30.34,East,97,5.0,12.0,-999,0.00,,,-99.99,,2013-09-28 14:53:00,
2013-09-28 11:44:00,69.0,-99.9,30.34,East,97,5.0,12.0,-999,0.00,,,-99.99,,2013-09-28 15:44:00,
2013-09-28 11:53:00,71.0,-99.9,30.32,ENE,73,8.0,9.0,-999,0.00,,,-99.99,,2013-09-28 15:53:00,
2013-09-28 12:43:00,71.0,-99.9,30.32,ENE,73,8.0,9.0,-999,0.00,,,-99.99,,2013-09-28 16:43:00,
2013-09-28 13:43:00,72.0,-99.9,30.31,West,279,3.0,7.0,-999,0.00,,,-99.99,,2013-09-28 17:43:00,
2013-09-28 13:52:00,72.0,-99.9,30.31,West,279,3.0,7.0,-999,0.00,,,-99.99,,2013-09-28 17:52:00,
2013-09-28 14:42:00,73.0,-99.9,30.28,ENE,62,-999.0,11.0,-999,0.00,,,-99.99,,2013-09-28 18:42:00,
2013-09-28 14:52:00,73.0,-99.9,30.28,ENE,62,-999.0,11.0,-999,0.00,,,-99.99,,2013-09-28 18:52:00,
2013-09-28 15:42:00,73.0,-99.9,30.26,NE,37,3.0,11.0,-999,0.00,,,-99.99,,2013-09-28 19:42:00,
2013-09-28 15:52:00,73.0,-99.9,30.26,NE,37,3.0,11.0,-999,0.00,,,-99.99,,2013-09-28 19:52:00,
2013-09-28 15:53:00,76.0,-99.9,30.26,ENE,76,-999.0,6.0,-999,0.00,,,-99.99,,2013-09-28 19:53:00,
2013-09-28 16:43:00,76.0,-99.9,30.26,ENE,76,-999.0,6.0,-999,0.00,,,-99.99,,2013-09-28 20:43:00,
2013-09-28 16:53:00,71.0,-99.9,30.25,ENE,67,-999.0,-999.0,-999,0.00,,,-99.99,,2013-09-28 20:53:00,
2013-09-28 17:44:00,71.0,-99.9,30.25,ENE,67,-999.0,-999.0,-999,0.00,,,-99.99,,2013-09-28 21:44:00,
2013-09-28 17:53:00,69.0,-99.9,30.26,NE,39,3.0,6.0,-999,0.00,,,-99.99,,2013-09-28 21:53:00,
2013-09-28 18:43:00,69.0,-99.9,30.26,NE,39,3.0,6.0,-999,0.00,,,-99.99,,2013-09-28 22:43:00,
2013-09-28 18:53:00,65.0,-99.9,30.25,NE,42,-999.0,-999.0,-999,0.00,,,-99.99,,2013-09-28 22:53:00,
2013-09-28 19:43:00,65.0,-99.9,30.25,NE,42,-999.0,-999.0,-999,0.00,,,-99.99,,2013-09-28 23:43:00,
2013-09-28 20:43:00,60.0,-99.9,30.25,NE,42,-999.0,-999.0,-999,0.00,,,-99.99,,2013-09-29 00:43:00,
2013-09-28 20:52:00,60.0,-99.9,30.25,NE,42,-999.0,-999.0,-999,0.00,,,-99.99,,2013-09-29 00:52:00,
2013-09-28 21:43:00,57.0,-99.9,30.25,NE,42,-999.0,-999.0,-999,0.00,,,-99.99,,2013-09-29 01:43:00,
2013-09-28 21:52:00,57.0,-99.9,30.25,NE,42,-999.0,-999.0,-999,0.00,,,-99.99,,2013-09-29 01:52:00,
2013-09-28 21:53:00,54.0,-99.9,30.26,NE,42,-999.0,-999.0,-999,0.00,,,-99.99,,2013-09-29 01:53:00,
2013-09-28 22:43:00,54.0,-99.9,30.26,NE,42,-999.0,-999.0,-999,0.00,,,-99.99,,2013-09-29 02:43:00,
2013-09-28 22:53:00,55.0,-99.9,30.25,NE,42,-999.0,-999.0,-999,0.00,,,-99.99,,2013-09-29 02:53:00,
2013-09-28 23:44:00,55.0,-99.9,30.25,NE,42,-999.0,-999.0,-999,0.00,,,-99.99,,2013-09-29 03:44:00,
2013-09-28 23:53:00,54.0,-99.9,30.24,NE,42,-999.0,-999.0,-999,0.00,,,-99.99,,2013-09-29 03:53:00,